Tracking 19644 objects as of 24-Apr-2019
HD Live streaming from Space Station
objects crossing your sky now

XIAOXIANG 3

Track XIAOXIANG 3 now!
10-day predictions


NORAD ID: 43944
Int'l Code: 2019-005C
Perigee: 529.4 km
Apogee: 546.4 km
Inclination: 97.5 °
Period: 95.3 minutes
Semi major axis: 6908 km
RCS: Unknown
Launch date: January 21, 2019
Source: People's Republic of China (PRC)
Launch site: Jiuquan Satellite Launch Center, China (JSC)
aabbcc
Your satellite tracking list
Your tracking list is empty




NASA's NSSDC Master Catalog

Two Line Element Set (TLE):
1 43944U 19005C   19113.83997884  .00000534  00000-0  35038-4 0  9995
2 43944  97.5073 211.3413 0012259 335.8461 138.4652 15.11782212 13970
Source of the keplerian elements: AFSPC